�ϑ��N����,2019/9/26,,,
�ϑ���,���эK���Y,,,
�ϑ��n�_,9,,,
���x�v�ԍ�,1,,,
,,,,
����,�C��,����,����,���l
9:30:00,-999,-999,-999,����
9:31:00,-999,-999,-999,����
9:32:00,-999,-999,-999,����
9:33:00,-999,-999,-999,����
9:34:00,-999,-999,-999,����
9:35:00,-999,-999,-999,����
9:36:00,-999,-999,-999,����
9:37:00,-999,-999,-999,����
9:38:00,-999,-999,-999,����
9:39:00,-999,-999,-999,����
9:40:00,-999,-999,-999,����
9:41:00,-999,-999,-999,����
9:42:00,-999,-999,-999,����
9:43:00,-999,-999,-999,����
9:44:00,25.7,5,3,����
9:45:00,25.6,4,2,
9:46:00,26.1,0,0,
9:47:00,26.8,0,0,
9:48:00,27,1,2,
9:49:00,26.8,0,0,
9:50:00,26.9,0,0,
9:51:00,26.8,0,0,
9:52:00,26.7,4,2,
9:53:00,26.2,1,1,
9:54:00,26.3,2,1,
9:55:00,26.2,6,1,
9:56:00,25.7,0,0,
9:57:00,25.6,2,2,
9:58:00,25.8,8,2,
9:59:00,25.6,2,2,
10:00:00,26.8,5,1,�_�ЂƂȂ��B
10:01:00,27.3,5,2,
10:02:00,27.1,0,0,
10:03:00,27.1,4,1,
10:04:00,26.9,3,2,
10:05:00,27,2,1,
10:06:00,26.8,2,2,
10:07:00,26.4,1,2,
10:08:00,26.1,2,1,
10:09:00,26.4,0,0,
10:10:00,26.9,2,1,
10:11:00,26.8,0,0,
10:12:00,27,3,1,
10:13:00,26.8,1,2,
10:14:00,26.2,2,2,
10:15:00,26.8,0,0,
10:16:00,26.2,7,1,
10:17:00,25.9,0,0,
10:18:00,26.6,1,1,
10:19:00,26.2,1,2,
10:20:00,26.5,0,0,�ǂ�����Ă���B
10:21:00,27.2,0,0,
10:22:00,27.1,3,2,
10:23:00,27.2,0,0,
10:24:00,27.5,4,1,
10:25:00,27.2,0,0,
10:26:00,27.2,6,1,
10:27:00,27.2,1,2,
10:28:00,27.7,5,1,
10:29:00,28.2,5,1,
10:30:00,28.4,0,0,
10:31:00,29,6,1,
10:32:00,28,5,1,
10:33:00,28.1,6,2,
10:34:00,27.7,0,0,
10:35:00,28,5,2,�_���Q����
10:36:00,27.6,6,2,
10:37:00,27.8,5,2,
10:38:00,27.8,0,0,
10:39:00,27.7,6,1,
10:40:00,28.5,0,0,
10:41:00,28.2,5,1,
10:42:00,28.2,1,1,
10:43:00,28,2,2,
10:44:00,28.5,0,0,
10:45:00,28,7,2,
10:46:00,28.1,0,0,
10:47:00,28.5,5,1,
10:48:00,28.7,2,1,
10:49:00,28.2,0,0,
10:50:00,28.9,0,0,
10:51:00,28.8,2,2,
10:52:00,28.2,2,2,
10:53:00,28.2,2,2,
10:54:00,28.6,3,2,
10:55:00,28.6,5,2,
10:56:00,28.8,6,1,
10:57:00,28.5,3,1,
10:58:00,28.5,6,2,
10:59:00,28.1,5,1,
11:00:00,28.1,6,1,
11:01:00,28.8,0,0,
11:02:00,29,6,1,
11:03:00,29.1,0,0,
11:04:00,28.9,6,2,
11:05:00,28.7,5,1,
11:06:00,28.8,0,0,
11:07:00,28.8,5,1,
11:08:00,28.3,0,0,
11:09:00,28.2,1,1,
11:10:00,27.9,5,2,��قǂ̉_�����֗�����Ă����B
11:11:00,28.5,4,1,
11:12:00,28.3,1,1,
11:13:00,28.8,0,0,
11:14:00,29.1,0,0,
11:15:00,29.1,7,2,
11:16:00,28.8,2,1,
11:17:00,28.1,1,1,
11:18:00,27.8,8,1,
11:19:00,27.4,0,0,
11:20:00,27.8,5,1,
11:21:00,28.5,5,2,
11:22:00,28.3,5,2,
11:23:00,28.5,6,1,
11:24:00,28.2,0,0,
11:25:00,28.1,1,1,
11:26:00,28.7,2,2,
11:27:00,28.5,1,2,
11:28:00,28.8,5,2,
11:29:00,28.9,1,2,
11:30:00,28.4,0,0,
